Date String (YYYY-MM-DD hh:mm:ss) UTC,Instrument flags,Ambient pressure (hPa),Sample flow (lpm),Bypass flow (lpm),Sample temperature (°C),Ambient temperature (°C),ASC tube jacket temperature (°C),LED temperature (°C),Box temperature (°C),Sample RH (%),Span deviation,Mass concentration (μg/m³),Mass concentration (μg/m³),Mass concentration (μg/m³)
DateTimeUTC,F1_M11,P_M11,Q1_M11,Q2_M11,T1_M11,T2_M11,T3_M11,T4_M11,T5_M11,U1_M11,ZSPAN_M11,X2_M11,X0_M11,X1_M11
2022-08-09 11:00:00,,0830.3,5.00,0.00,29.6,28.1,00.0,38.5,31.5,30.2,0000.0,0006.48,0012.89,0005.61
2022-08-09 11:01:00,,0830.3,5.00,0.00,29.6,28.2,00.0,38.5,31.6,30.2,0000.0,0006.42,0012.82,0005.58
2022-08-09 11:02:00,,0830.2,5.00,0.00,29.7,28.3,00.0,38.5,31.6,30.6,0000.0,0006.41,0012.77,0005.57
2022-08-09 11:03:00,,0830.2,5.00,0.00,29.7,28.4,00.0,38.5,31.6,30.6,0000.0,0006.35,0012.24,0005.54
2022-08-09 11:04:00,,0830.3,5.00,0.00,29.7,28.5,00.0,38.5,31.6,30.9,0000.0,0006.30,0011.78,0005.53
2022-08-09 11:05:00,,0830.2,5.00,0.00,29.7,28.5,00.0,38.5,31.7,31.2,0000.0,0006.29,0011.16,0005.51
2022-08-09 11:06:00,,0830.2,5.00,0.00,29.7,28.6,00.0,38.6,31.7,31.7,0000.0,0006.28,0010.95,0005.49
2022-08-09 11:07:00,,0830.3,5.01,0.00,29.8,28.7,00.0,38.6,31.7,32.1,0000.0,0006.24,0010.87,0005.47
2022-08-09 11:08:00,,0830.2,5.00,0.00,29.8,28.7,00.0,38.6,31.8,32.1,0000.0,0006.21,0010.36,0005.44
2022-08-09 11:09:00,,0830.2,5.00,0.00,29.8,28.7,00.0,38.6,31.8,32.6,0000.0,0006.15,0010.12,0005.41
2022-08-09 11:10:00,,0830.2,5.00,0.00,29.8,28.8,00.0,38.6,31.8,33.1,0000.0,0006.11,0010.27,0005.38
2022-08-09 11:11:00,,0830.3,5.00,0.00,29.8,28.8,00.0,38.6,31.8,33.1,0000.0,0006.11,0010.43,0005.34
2022-08-09 11:12:00,,0830.3,5.00,0.00,29.8,28.9,00.0,38.6,31.8,32.7,0000.0,0006.09,0010.84,0005.31
2022-08-09 11:13:00,,0830.3,5.00,0.00,29.9,28.9,00.0,38.6,31.9,32.6,0000.0,0006.05,0010.90,0005.28
2022-08-09 11:14:00,,0830.3,5.01,0.00,29.9,28.9,00.0,38.7,31.9,32.8,0000.0,0006.04,0010.91,0005.26
2022-08-09 11:15:00,,0830.3,5.00,0.00,29.9,28.9,00.0,38.7,31.9,32.7,0000.0,0006.06,0010.97,0005.25
2022-08-09 11:16:00,,0830.3,5.00,0.00,29.9,29.0,00.0,38.7,31.9,32.9,0000.0,0006.05,0011.01,0005.24
2022-08-09 11:17:00,,0830.3,5.00,0.00,30.0,29.0,00.0,38.7,31.9,32.9,0000.0,0006.05,0012.14,0005.22
2022-08-09 11:18:00,,0830.3,4.99,0.00,30.0,28.8,00.0,38.7,31.9,32.8,0000.0,0006.06,0013.40,0005.21
2022-08-09 11:19:00,,0830.3,5.00,0.00,29.9,28.1,00.0,38.7,31.7,32.6,0000.0,0006.04,0013.71,0005.20
2022-08-09 11:20:00,,0830.4,5.00,0.00,29.9,27.7,00.0,38.6,31.6,32.5,0000.0,0006.06,0013.93,0005.20
2022-08-09 11:21:00,,0830.4,5.00,0.00,29.8,27.6,00.0,38.6,31.5,32.7,0000.0,0006.10,0013.94,0005.22
2022-08-09 11:22:00,,0830.4,4.99,0.00,29.7,27.6,00.0,38.6,31.5,33.0,0000.0,0006.11,0013.74,0005.24
2022-08-09 11:23:00,,0830.4,5.01,0.00,29.7,27.7,00.0,38.6,31.5,33.0,0000.0,0006.12,0013.36,0005.26
2022-08-09 11:24:00,,0830.4,4.99,0.00,29.7,27.9,00.0,38.6,31.5,32.9,0000.0,0006.11,0013.61,0005.27
2022-08-09 11:25:00,,0830.4,5.01,0.00,29.7,28.0,00.0,38.6,31.5,33.0,0000.0,0006.10,0013.61,0005.25
2022-08-09 11:26:00,,0830.4,5.00,0.00,29.7,28.1,00.0,38.6,31.5,33.1,0000.0,0006.05,0013.61,0005.23
2022-08-09 11:27:00,,0830.4,5.00,0.00,29.7,28.2,00.0,38.6,31.6,31.7,0000.0,0006.07,0013.87,0005.23
2022-08-09 11:28:00,,0830.4,5.00,0.00,29.7,28.3,00.0,38.6,31.6,32.0,0000.0,0006.06,0012.77,0005.23
2022-08-09 11:29:00,,0830.4,5.02,0.00,29.7,28.4,00.0,38.6,31.6,31.5,0000.0,0006.04,0012.09,0005.24
2022-08-09 11:30:00,,0830.4,5.00,0.00,29.7,28.5,00.0,38.6,31.7,30.7,0000.0,0006.11,0011.83,0005.26
2022-08-09 11:31:00,,0830.4,5.00,0.00,29.8,28.6,00.0,38.6,31.7,31.7,0000.0,0006.17,0011.81,0005.28
2022-08-09 11:32:00,,0830.4,5.01,0.00,29.8,28.6,00.0,38.6,31.7,32.0,0000.0,0006.16,0011.76,0005.27
2022-08-09 11:33:00,,0830.4,4.99,0.00,29.8,28.7,00.0,38.6,31.8,32.2,0000.0,0006.11,0012.17,0005.25
2022-08-09 11:34:00,,0830.4,5.00,0.00,29.8,28.7,00.0,38.6,31.8,31.9,0000.0,0006.12,0012.70,0005.25
2022-08-09 11:35:00,,0830.4,5.00,0.00,29.8,28.8,00.0,38.6,31.8,31.2,0000.0,0006.11,0012.79,0005.25
2022-08-09 11:36:00,,0830.4,5.00,0.00,29.9,28.8,00.0,38.6,31.8,30.7,0000.0,0006.14,0013.10,0005.26
2022-08-09 11:37:00,,0830.4,5.01,0.00,29.9,28.9,00.0,38.6,31.9,30.6,0000.0,0006.19,0013.37,0005.30
2022-08-09 11:38:00,,0830.4,4.99,0.00,29.9,28.9,00.0,38.7,31.9,30.5,0000.0,0006.18,0012.87,0005.31
2022-08-09 11:39:00,,0830.4,5.00,0.00,29.9,28.9,00.0,38.7,31.9,30.5,0000.0,0006.19,0013.09,0005.32
2022-08-09 11:40:00,,0830.4,5.00,0.00,30.0,29.0,00.0,38.7,31.9,30.3,0000.0,0006.20,0012.95,0005.32
2022-08-09 11:41:00,,0830.4,5.00,0.00,30.0,29.0,00.0,38.7,31.9,30.2,0000.0,0006.18,0012.78,0005.32
2022-08-09 11:42:00,,0830.4,5.00,0.00,30.0,29.0,00.0,38.7,32.0,30.0,0000.0,0006.16,0012.71,0005.31
2022-08-09 11:43:00,,0830.4,5.02,0.00,30.0,28.9,00.0,38.8,31.9,29.6,0000.0,0006.15,0012.91,0005.31
2022-08-09 11:44:00,,0830.5,4.99,0.00,30.0,28.2,00.0,38.7,31.8,29.5,0000.0,0006.18,0013.25,0005.33
2022-08-09 11:45:00,,0830.4,5.01,0.00,29.9,27.7,00.0,38.7,31.7,29.5,0000.0,0006.21,0012.77,0005.35
2022-08-09 11:46:00,,0830.4,4.99,0.00,29.8,27.6,00.0,38.7,31.5,29.5,0000.0,0006.24,0012.30,0005.37
2022-08-09 11:47:00,,0830.4,5.01,0.00,29.8,27.7,00.0,38.6,31.5,29.5,0000.0,0006.21,0012.27,0005.38
2022-08-09 11:48:00,,0830.4,5.00,0.00,29.7,27.7,00.0,38.6,31.5,29.5,0000.0,0006.16,0012.42,0005.37
2022-08-09 11:49:00,,0830.4,5.01,0.00,29.7,27.9,00.0,38.6,31.5,29.5,0000.0,0006.17,0012.59,0005.37
2022-08-09 11:50:00,,0830.4,4.99,0.00,29.7,28.0,00.0,38.6,31.5,29.3,0000.0,0006.13,0012.51,0005.39
2022-08-09 11:51:00,,0830.5,5.00,0.00,29.7,28.1,00.0,38.6,31.5,29.5,0000.0,0006.13,0012.13,0005.39
2022-08-09 11:52:00,,0830.5,5.00,0.00,29.7,28.2,00.0,38.6,31.6,29.4,0000.0,0006.15,0012.27,0005.41
2022-08-09 11:53:00,,0830.5,5.00,0.00,29.7,28.3,00.0,38.6,31.6,29.3,0000.0,0006.14,0012.30,0005.41
2022-08-09 11:54:00,,0830.5,5.00,0.00,29.7,28.4,00.0,38.6,31.6,29.0,0000.0,0006.10,0012.02,0005.43
2022-08-09 11:55:00,,0830.5,5.00,0.00,29.8,28.5,00.0,38.6,31.7,28.9,0000.0,0006.08,0011.31,0005.45
2022-08-09 11:56:00,,0830.5,5.00,0.00,29.8,28.6,00.0,38.6,31.7,29.0,0000.0,0006.04,0011.22,0005.45
2022-08-09 11:57:00,,0830.5,5.00,0.00,29.8,28.6,00.0,38.6,31.7,29.0,0000.0,0006.04,0011.00,0005.47
2022-08-09 11:58:00,,0830.6,5.01,0.00,29.8,28.7,00.0,38.6,31.8,29.1,0000.0,0006.07,0010.75,0005.47
2022-08-09 11:59:00,,0830.5,5.00,0.00,29.8,28.7,00.0,38.6,31.8,29.2,0000.0,0006.13,0010.91,0005.48
